| time (UTC) | temp F | wind direction | speed MPH | gust MPH | rain 1hr in | rain 24hr in | rain mn in | humidity % | barometer mb |
| 20260903194517 | 75 | 271 | 5.0 | 12.0 | 0.00 | 0.00 | 0.00 | 21 | 1025.5 |
| 20260903193518 | 75 | 275 | 7.0 | 12.0 | 0.00 | 0.00 | 0.00 | 22 | 1025.6 |
| 20260903192518 | 76 | 284 | 11.0 | 16.0 | 0.00 | 0.00 | 0.00 | 21 | 1025.6 |
| 20260903191539 | 76 | 264 | 13.0 | 20.0 | 0.00 | 0.00 | 0.00 | 20 | 1025.6 |
| 20260903190518 | 75 | 236 | 6.0 | 13.0 | 0.00 | 0.00 | 0.00 | 21 | 1025.7 |
| 20260903185518 | 75 | 272 | 9.0 | 19.0 | 0.00 | 0.00 | 0.00 | 22 | 1025.7 |
| 20260903184519 | 75 | 241 | 7.0 | 13.0 | 0.00 | 0.00 | 0.00 | 24 | 1025.8 |
| 20260903183516 | 74 | 314 | 5.0 | 10.0 | 0.00 | 0.00 | 0.00 | 23 | 1025.8 |
| 20260903182519 | 75 | 255 | 8.0 | 16.0 | 0.00 | 0.00 | 0.00 | 22 | 1025.9 |
| 20260903181519 | 74 | 162 | 4.0 | 9.0 | 0.00 | 0.00 | 0.00 | 26 | 1026.0 |
| 20260903180520 | 74 | 236 | 6.0 | 12.0 | 0.00 | 0.00 | 0.00 | 26 | 1026.0 |
| 20260903175516 | 73 | 257 | 6.0 | 11.0 | 0.00 | 0.00 | 0.00 | 26 | 1026.2 |
| 20260903174520 | 73 | 249 | 4.0 | 10.0 | 0.00 | 0.00 | 0.00 | 25 | 1026.2 |
| 20260903173520 | 73 | 235 | 5.0 | 12.0 | 0.00 | 0.00 | 0.00 | 27 | 1026.2 |
| 20260903172520 | 73 | 254 | 6.0 | 9.0 | 0.00 | 0.00 | 0.00 | 28 | 1026.3 |
| 20260903171520 | 72 | 223 | 5.0 | 9.0 | 0.00 | 0.00 | 0.00 | 27 | 1026.3 |
| 20260903170521 | 71 | 202 | 5.0 | 9.0 | 0.00 | 0.00 | 0.00 | 27 | 1026.3 |
| 20260903165517 | 71 | 203 | 5.0 | 9.0 | 0.00 | 0.00 | 0.00 | 27 | 1026.3 |
| 20260903164521 | 71 | 223 | 5.0 | 9.0 | 0.00 | 0.00 | 0.00 | 29 | 1026.3 |
| 20260903163521 | 70 | 255 | 5.0 | 8.0 | 0.00 | 0.00 | 0.00 | 29 | 1026.3 |
| 20260903162521 | 70 | 315 | 5.0 | 8.0 | 0.00 | 0.00 | 0.00 | 32 | 1026.1 |
| 20260903161518 | 70 | 320 | 6.0 | 11.0 | 0.00 | 0.00 | 0.00 | 33 | 1026.0 |
| 20260903160518 | 69 | 286 | 6.0 | 11.0 | 0.00 | 0.00 | 0.00 | 34 | 1026.2 |
| 20260903155518 | 69 | 288 | 7.0 | 13.0 | 0.00 | 0.00 | 0.00 | 35 | 1026.3 |
| 20260903154519 | 68 | 272 | 7.0 | 11.0 | 0.00 | 0.00 | 0.00 | 35 | 1026.5 |
| 20260903153516 | 68 | 282 | 9.0 | 14.0 | 0.00 | 0.00 | 0.00 | 35 | 1026.5 |
| 20260903152519 | 68 | 287 | 6.0 | 11.0 | 0.00 | 0.00 | 0.00 | 35 | 1026.5 |
| 20260903151522 | 68 | 279 | 5.0 | 10.0 | 0.00 | 0.00 | 0.00 | 36 | 1026.6 |
| 20260903150543 | 68 | 227 | 4.0 | 7.0 | 0.00 | 0.00 | 0.00 | 35 | 1026.7 |
| 20260903145517 | 67 | 231 | 6.0 | 10.0 | 0.00 | 0.00 | 0.00 | 37 | 1026.8 |
| 20260903144517 | 66 | 209 | 8.0 | 11.0 | 0.00 | 0.00 | 0.00 | 41 | 1026.8 |
| 20260903143517 | 66 | 186 | 10.0 | 13.0 | 0.00 | 0.00 | 0.00 | 41 | 1026.8 |
| 20260903142517 | 65 | 193 | 10.0 | 15.0 | 0.00 | 0.00 | 0.00 | 43 | 1026.7 |
| 20260903141517 | 64 | 188 | 11.0 | 16.0 | 0.00 | 0.00 | 0.00 | 45 | 1026.8 |
| 20260903132519 | 59 | 190 | 8.0 | 11.0 | 0.00 | 0.00 | 0.00 | 51 | 1026.3 |
| 20260903131518 | 58 | 187 | 7.0 | 10.0 | 0.00 | 0.00 | 0.00 | 54 | 1026.1 |
| 20260903130519 | 57 | 204 | 6.0 | 9.0 | 0.00 | 0.00 | 0.00 | 54 | 1026.0 |
| 20260903125519 | 56 | 185 | 5.0 | 8.0 | 0.00 | 0.00 | 0.00 | 54 | 1026.1 |
| 20260903124519 | 57 | 185 | 6.0 | 8.0 | 0.00 | 0.00 | 0.00 | 56 | 1025.9 |
| 20260903123540 | 58 | 210 | 6.0 | 9.0 | 0.00 | 0.00 | 0.00 | 50 | 1025.8 |
| 20260903122520 | 58 | 180 | 5.0 | 7.0 | 0.00 | 0.00 | 0.00 | 52 | 1025.8 |
| 20260903121520 | 59 | 226 | 6.0 | 9.0 | 0.00 | 0.00 | 0.00 | 47 | 1025.7 |
| 20260903120520 | 56 | 181 | 5.0 | 8.0 | 0.00 | 0.00 | 0.00 | 57 | 1025.6 |
| 20260903115520 | 57 | 197 | 6.0 | 9.0 | 0.00 | 0.00 | 0.00 | 55 | 1025.6 |
| 20260903114520 | 57 | 257 | 3.0 | 7.0 | 0.00 | 0.00 | 0.00 | 53 | 1025.4 |
| 20260903113530 | 58 | 209 | 3.0 | 5.0 | 0.00 | 0.00 | 0.00 | 52 | 1025.6 |
| 20260903112541 | 58 | 181 | 5.0 | 9.0 | 0.00 | 0.00 | 0.00 | 51 | 1025.4 |
| 20260903111541 | 57 | 174 | 6.0 | 7.0 | 0.00 | 0.00 | 0.00 | 52 | 1025.4 |
| 20260903110521 | 58 | 116 | 3.0 | 6.0 | 0.00 | 0.00 | 0.00 | 50 | 1025.3 |
| 20260903105521 | 57 | 143 | 5.0 | 8.0 | 0.00 | 0.00 | 0.00 | 50 | 1025.4 |
| 20260903104521 | 56 | 89 | 4.0 | 6.0 | 0.00 | 0.00 | 0.00 | 54 | 1025.5 |
| 20260903103530 | 57 | 126 | 3.0 | 5.0 | 0.00 | 0.00 | 0.00 | 51 | 1025.5 |
| 20260903102522 | 57 | 128 | 4.0 | 7.0 | 0.00 | 0.00 | 0.00 | 52 | 1025.4 |
| 20260903101536 | 57 | 143 | 5.0 | 7.0 | 0.00 | 0.00 | 0.00 | 50 | 1025.4 |
| 20260903100516 | 56 | 94 | 3.0 | 5.0 | 0.00 | 0.00 | 0.00 | 53 | 1025.5 |
| 20260903095522 | 56 | 129 | 3.0 | 7.0 | 0.00 | 0.00 | 0.00 | 56 | 1025.4 |
| 20260903094531 | 59 | 119 | 2.0 | 4.0 | 0.00 | 0.00 | 0.00 | 50 | 1025.3 |
| 20260903093551 | 60 | 119 | 2.0 | 3.0 | 0.00 | 0.00 | 0.00 | 46 | 1025.5 |
| 20260903092532 | 59 | 128 | 2.0 | 4.0 | 0.00 | 0.00 | 0.00 | 45 | 1025.5 |
| 20260903091517 | 59 | 114 | 2.0 | 4.0 | 0.00 | 0.00 | 0.00 | 49 | 1025.5 |
| 20260903090537 | 62 | 146 | 4.0 | 7.0 | 0.00 | 0.00 | 0.00 | 46 | 1025.5 |
| 20260903085517 | 63 | 154 | 2.0 | 6.0 | 0.00 | 0.00 | 0.00 | 40 | 1025.6 |
| 20260903084517 | 62 | 198 | 2.0 | 4.0 | 0.00 | 0.00 | 0.00 | 41 | 1025.6 |
| 20260903083517 | 62 | 351 | 3.0 | 5.0 | 0.00 | 0.00 | 0.00 | 41 | 1025.5 |
| 20260903082538 | 62 | 123 | 3.0 | 7.0 | 0.00 | 0.00 | 0.00 | 41 | 1025.5 |
| 20260903081518 | 61 | 111 | 3.0 | 6.0 | 0.00 | 0.00 | 0.00 | 42 | 1025.5 |
| 20260903080518 | 61 | 239 | 4.0 | 12.0 | 0.00 | 0.00 | 0.00 | 46 | 1025.6 |
| 20260903075518 | 59 | 102 | 3.0 | 7.0 | 0.00 | 0.00 | 0.00 | 46 | 1025.6 |
| 20260903074518 | 58 | 152 | 4.0 | 6.0 | 0.00 | 0.00 | 0.00 | 50 | 1025.7 |
| 20260903073518 | 58 | 104 | 2.0 | 3.0 | 0.00 | 0.00 | 0.00 | 51 | 1025.6 |
| 20260903072539 | 60 | 114 | 4.0 | 7.0 | 0.00 | 0.00 | 0.00 | 49 | 1025.5 |
| 20260903071519 | 61 | 153 | 3.0 | 5.0 | 0.00 | 0.00 | 0.00 | 45 | 1025.6 |
| 20260903070519 | 61 | 152 | 7.0 | 11.0 | 0.00 | 0.00 | 0.00 | 43 | 1025.5 |
| 20260903065519 | 60 | 208 | 4.0 | 7.0 | 0.00 | 0.00 | 0.00 | 47 | 1025.7 |
| 20260903064519 | 62 | 129 | 3.0 | 8.0 | 0.00 | 0.00 | 0.00 | 44 | 1025.6 |
| 20260903063517 | 62 | 183 | 5.0 | 11.0 | 0.00 | 0.00 | 0.00 | 43 | 1025.6 |
| 20260903062520 | 62 | 141 | 5.0 | 8.0 | 0.00 | 0.00 | 0.00 | 44 | 1025.6 |
| 20260903061517 | 65 | 268 | 10.0 | 18.0 | 0.00 | 0.00 | 0.00 | 36 | 1025.3 |
| 20260903060520 | 60 | 184 | 3.0 | 5.0 | 0.00 | 0.00 | 0.00 | 43 | 1025.6 |
| 20260903055520 | 59 | 168 | 5.0 | 8.0 | 0.00 | 0.00 | 0.00 | 47 | 1025.6 |
| 20260903054520 | 59 | 160 | 5.0 | 6.0 | 0.00 | 0.00 | 0.00 | 45 | 1025.7 |
| 20260903053521 | 59 | 168 | 5.0 | 7.0 | 0.00 | 0.00 | 0.00 | 44 | 1025.8 |
| 20260903052521 | 59 | 163 | 4.0 | 6.0 | 0.00 | 0.00 | 0.00 | 45 | 1025.8 |
| 20260903051521 | 60 | 142 | 4.0 | 8.0 | 0.00 | 0.00 | 0.00 | 42 | 1026.0 |
| 20260903050521 | 61 | 171 | 6.0 | 10.0 | 0.00 | 0.00 | 0.00 | 40 | 1026.0 |
| 20260903045601 | 61 | 145 | 2.0 | 4.0 | 0.00 | 0.00 | 0.00 | 39 | 1026.1 |
| 20260903044521 | 60 | 155 | 6.0 | 8.0 | 0.00 | 0.00 | 0.00 | 40 | 1026.1 |
| 20260903043522 | 60 | 189 | 3.0 | 6.0 | 0.00 | 0.00 | 0.00 | 41 | 1026.1 |
| 20260903042522 | 62 | 183 | 4.0 | 6.0 | 0.00 | 0.00 | 0.00 | 36 | 1026.1 |
| 20260903041522 | 62 | 141 | 2.0 | 4.0 | 0.00 | 0.00 | 0.00 | 36 | 1026.2 |
| 20260903040522 | 63 | 148 | 5.0 | 9.0 | 0.00 | 0.00 | 0.00 | 36 | 1026.1 |
| 20260903035516 | 63 | 98 | 3.0 | 5.0 | 0.00 | 0.00 | 0.00 | 33 | 1026.1 |
| 20260903034516 | 62 | 44 | 4.0 | 7.0 | 0.00 | 0.00 | 0.00 | 35 | 1026.1 |
| 20260903033517 | 64 | 229 | 4.0 | 7.0 | 0.00 | 0.00 | 0.00 | 32 | 1026.0 |
| 20260903032523 | 65 | 227 | 5.0 | 8.0 | 0.00 | 0.00 | 0.00 | 31 | 1025.8 |
| 20260903031517 | 65 | 245 | 6.0 | 9.0 | 0.00 | 0.00 | 0.00 | 31 | 1025.7 |
| 20260903030517 | 65 | 238 | 5.0 | 8.0 | 0.00 | 0.00 | 0.00 | 31 | 1025.6 |
| 20260903025517 | 66 | 252 | 6.0 | 10.0 | 0.00 | 0.00 | 0.00 | 30 | 1025.5 |
| 20260903024517 | 66 | 254 | 6.0 | 10.0 | 0.00 | 0.00 | 0.00 | 29 | 1025.4 |
| 20260903023558 | 67 | 258 | 7.0 | 10.0 | 0.00 | 0.00 | 0.00 | 29 | 1025.3 |
| 20260903022538 | 67 | 254 | 7.0 | 9.0 | 0.00 | 0.00 | 0.00 | 29 | 1025.3 |
| 20260903021518 | 69 | 259 | 8.0 | 13.0 | 0.00 | 0.00 | 0.00 | 27 | 1025.2 |
| 20260903020539 | 69 | 274 | 9.0 | 14.0 | 0.00 | 0.00 | 0.00 | 26 | 1025.1 |
| 20260903015538 | 69 | 282 | 9.0 | 15.0 | 0.00 | 0.00 | 0.00 | 26 | 1025.0 |
| 20260903014519 | 68 | 266 | 7.0 | 10.0 | 0.00 | 0.00 | 0.00 | 26 | 1024.9 |
| 20260903013519 | 69 | 264 | 7.0 | 10.0 | 0.00 | 0.00 | 0.00 | 25 | 1024.8 |
| 20260903012516 | 70 | 251 | 9.0 | 11.0 | 0.00 | 0.00 | 0.00 | 22 | 1024.8 |
| 20260903011519 | 71 | 245 | 8.0 | 13.0 | 0.00 | 0.00 | 0.00 | 22 | 1024.6 |
| 20260903010517 | 73 | 234 | 6.0 | 13.0 | 0.00 | 0.00 | 0.00 | 22 | 1024.7 |
| 20260903005537 | 74 | 233 | 9.0 | 13.0 | 0.00 | 0.00 | 0.00 | 20 | 1024.6 |
| 20260903004517 | 75 | 243 | 7.0 | 12.0 | 0.00 | 0.00 | 0.00 | 20 | 1024.7 |
| 20260903003537 | 75 | 246 | 10.0 | 18.0 | 0.00 | 0.00 | 0.00 | 20 | 1024.6 |
| 20260903002520 | 76 | 236 | 7.0 | 10.0 | 0.00 | 0.00 | 0.00 | 21 | 1024.6 |
| 20260903001517 | 76 | 241 | 7.0 | 11.0 | 0.00 | 0.00 | 0.00 | 21 | 1024.6 |
| 20260903000538 | 77 | 263 | 11.0 | 15.0 | 0.00 | 0.00 | 0.00 | 20 | 1024.6 |
| 20260902235518 | 77 | 246 | 8.0 | 13.0 | 0.00 | 0.00 | 0.00 | 20 | 1024.5 |
| 20260902234518 | 76 | 256 | 8.0 | 12.0 | 0.00 | 0.00 | 0.00 | 21 | 1024.6 |
| 20260902233521 | 76 | 251 | 6.0 | 9.0 | 0.00 | 0.00 | 0.00 | 21 | 1024.6 |
| 20260902232518 | 76 | 278 | 9.0 | 17.0 | 0.00 | 0.00 | 0.00 | 21 | 1024.7 |
| 20260902231518 | 76 | 294 | 7.0 | 11.0 | 0.00 | 0.00 | 0.00 | 21 | 1024.8 |
| 20260902230519 | 77 | 251 | 7.0 | 12.0 | 0.00 | 0.00 | 0.00 | 21 | 1024.8 |
| 20260902225516 | 77 | 224 | 8.0 | 13.0 | 0.00 | 0.00 | 0.00 | 21 | 1024.9 |
| 20260902224519 | 77 | 270 | 9.0 | 15.0 | 0.00 | 0.00 | 0.00 | 22 | 1024.9 |
| 20260902223539 | 78 | 262 | 11.0 | 17.0 | 0.00 | 0.00 | 0.00 | 21 | 1024.9 |
| 20260902222536 | 78 | 275 | 8.0 | 15.0 | 0.00 | 0.00 | 0.00 | 22 | 1025.0 |
| 20260902221517 | 77 | 283 | 9.0 | 15.0 | 0.00 | 0.00 | 0.00 | 22 | 1025.1 |
| 20260902220528 | 77 | 306 | 6.0 | 12.0 | 0.00 | 0.00 | 0.00 | 23 | 1025.2 |
| 20260902215518 | 77 | 296 | 8.0 | 13.0 | 0.00 | 0.00 | 0.00 | 23 | 1025.3 |
| 20260902214517 | 76 | 304 | 5.0 | 9.0 | 0.00 | 0.00 | 0.00 | 24 | 1025.4 |
| 20260902213517 | 77 | 298 | 5.0 | 9.0 | 0.00 | 0.00 | 0.00 | 24 | 1025.5 |
| 20260902212517 | 76 | 268 | 7.0 | 16.0 | 0.00 | 0.00 | 0.00 | 24 | 1025.6 |
| 20260902211523 | 76 | 216 | 6.0 | 12.0 | 0.00 | 0.00 | 0.00 | 24 | 1025.7 |
| 20260902210518 | 76 | 249 | 6.0 | 12.0 | 0.00 | 0.00 | 0.00 | 24 | 1025.9 |
| 20260902205518 | 76 | 283 | 4.0 | 13.0 | 0.00 | 0.00 | 0.00 | 24 | 1026.0 |
| 20260902204539 | 76 | 245 | 5.0 | 11.0 | 0.00 | 0.00 | 0.00 | 24 | 1026.1 |
| 20260902203538 | 76 | 244 | 5.0 | 9.0 | 0.00 | 0.00 | 0.00 | 24 | 1026.2 |
| 20260902202519 | 75 | 177 | 5.0 | 10.0 | 0.00 | 0.00 | 0.00 | 24 | 1026.3 |
| 20260902201519 | 75 | 250 | 6.0 | 11.0 | 0.00 | 0.00 | 0.00 | 25 | 1026.4 |
| 20260902200519 | 75 | 198 | 6.0 | 9.0 | 0.00 | 0.00 | 0.00 | 25 | 1026.5 |
| 20260902195519 | 76 | 135 | 4.0 | 9.0 | 0.00 | 0.00 | 0.00 | 25 | 1026.7 |